Taunton, MA

2:13 PM EDT on July 26, 2017 (GMT -0400)
Taunton Municipal

Weather History for KTAN - December, 2012

Change the Weather History Date:

Sunday, December 16, 2012

  Actual Average Record
Temperature  
Mean Temperature 32 °F -  
Max Temperature 39 °F 42 °F 62 °F (1971)
Min Temperature 27 °F 23 °F 5 °F (1961)
Degree Days  
Heating Degree Days 33    
Moisture  
Dew Point 30 °F    
Average Humidity 82    
Maximum Humidity 93    
Minimum Humidity 62    
Precipitation  
Precipitation 0.23 in - - ()
Sea Level Pressure  
Sea Level Pressure 30.18 in    
Wind  
Wind Speed 3 mph (East)    
Max Wind Speed 9 mph    
Max Gust Speed 17 mph    
Visibility 7 miles    
Events Rain    
Averages and records for this station are not official NWS values.
T = Trace of Precipitation, MM = Missing Value Source: NWS Daily Summary

Daily Weather History Graph

Daily Weather History Graph

Search for Another Location

Airport or City:

Trip Planner

Search our weather history database for the weather conditions in past years. The results will help you decide how hot, cold, wet, or windy it might be!

Date:

Astronomy

Dec. 16, 2012 Rise Set
Actual Time 7:05 AM EST 4:14 PM EST
Civil Twilight 6:34 AM EST 4:45 PM EST
Nautical Twilight 5:58 AM EST 5:21 PM EST
Astronomical Twilight 5:24 AM EST 5:55 PM EST
Moon 9:34 AM EST (12/16) 8:28 PM EST (12/16)
Length of Visible Light 10h 11m
Length of Day
9h 08m
Waxing Crescent, 16% of the Moon is Illuminated
Dec 16
Waxing Crescent
Dec 20
First Quarter
Dec 28
Full
Jan 4
Last Quarter
Jan 11
New

Hourly Weather History & Observations

Time (EST) Temp. Windchill Dew Point Humidity Pressure Visibility Wind Dir Wind Speed Gust Speed Precip Events Conditions
12:52 AM 27.0 °F - 23.0 °F 85% 30.32 in 10.0 mi Calm Calm - N/A   Clear
1:52 AM 28.0 °F - 24.1 °F 85% 30.30 in 10.0 mi Calm Calm - N/A   Partly Cloudy
2:52 AM 28.9 °F - 25.0 °F 85% 30.30 in 9.0 mi Calm Calm - N/A   Overcast
3:52 AM 30.0 °F - 26.1 °F 85% 30.29 in 9.0 mi Calm Calm - N/A   Overcast
4:52 AM 30.0 °F - 26.1 °F 85% 30.29 in 10.0 mi Calm Calm - N/A   Overcast
6:52 AM 32.0 °F - 24.1 °F 73% 30.28 in 10.0 mi Calm Calm - N/A   Overcast
7:52 AM 34.0 °F - 25.0 °F 70% 30.28 in 10.0 mi Calm Calm - N/A   Overcast
8:52 AM 35.1 °F 31.0 °F 25.0 °F 67% 30.28 in 10.0 mi East 4.6 mph - N/A   Overcast
9:52 AM 36.0 °F 30.3 °F 25.0 °F 64% 30.28 in 10.0 mi East 6.9 mph - N/A   Overcast
10:52 AM 37.0 °F 32.4 °F 25.0 °F 62% 30.25 in 10.0 mi East 5.8 mph - N/A   Overcast
11:52 AM 37.0 °F 31.0 °F 25.0 °F 62% 30.23 in 10.0 mi East 8.1 mph - N/A   Overcast
12:52 PM 37.9 °F 32.7 °F 26.1 °F 62% 30.20 in 10.0 mi East 6.9 mph 17.3 mph N/A   Overcast
1:52 PM 36.0 °F 30.3 °F 30.0 °F 79% 30.18 in 6.0 mi East 6.9 mph - 0.00 in Rain Light Rain
1:59 PM 36.0 °F 30.3 °F 30.0 °F 79% 30.17 in 6.0 mi East 6.9 mph - 0.00 in Rain Light Rain
2:42 PM 36.0 °F 30.3 °F 30.0 °F 79% 30.17 in 9.0 mi East 6.9 mph - 0.00 in Rain Light Rain
2:52 PM 36.0 °F 30.3 °F 30.0 °F 79% 30.18 in 6.0 mi East 6.9 mph - 0.00 in Rain Light Rain
3:52 PM 35.1 °F 30.1 °F 32.0 °F 89% 30.16 in 6.0 mi East 5.8 mph - 0.02 in Rain Light Rain
3:58 PM 35.1 °F 32.2 °F 32.0 °F 89% 30.16 in 5.0 mi ENE 3.5 mph - 0.00 in Rain Light Rain
4:05 PM 35.1 °F 31.0 °F 32.0 °F 89% 30.15 in 6.0 mi Variable 4.6 mph - 0.00 in Rain Light Rain
4:22 PM 35.1 °F 32.2 °F 32.0 °F 89% 30.14 in 5.0 mi ENE 3.5 mph - 0.00 in Rain Light Rain
4:52 PM 35.1 °F 32.2 °F 32.0 °F 89% 30.14 in 5.0 mi East 3.5 mph - 0.00 in Rain Light Rain
5:52 PM 36.0 °F 31.1 °F 33.1 °F 89% 30.13 in 6.0 mi East 5.8 mph - 0.01 in Rain Light Rain
6:52 PM 37.0 °F 30.4 °F 34.0 °F 89% 30.12 in 5.0 mi East 9.2 mph - 0.05 in Rain Rain
7:02 PM 37.0 °F 31.6 °F 34.0 °F 89% 30.12 in 4.0 mi East 6.9 mph - 0.01 in Rain Rain
7:25 PM 37.0 °F 31.6 °F 34.0 °F 89% 30.11 in 5.0 mi East 6.9 mph - 0.04 in Rain Light Rain
7:37 PM 37.0 °F 31.6 °F 34.0 °F 89% 30.11 in 6.0 mi East 6.9 mph - 0.05 in Rain Light Rain
7:52 PM 37.0 °F 31.0 °F 34.0 °F 89% 30.11 in 7.0 mi East 8.1 mph - 0.05 in Rain Light Rain
8:52 PM 37.0 °F 33.3 °F 35.1 °F 93% 30.09 in 5.0 mi Variable 4.6 mph - 0.00 in   Overcast
9:52 PM 37.9 °F 33.5 °F 35.1 °F 89% 30.07 in 5.0 mi Variable 5.8 mph - 0.00 in   Overcast
10:52 PM 37.9 °F 33.5 °F 36.0 °F 93% 30.06 in 7.0 mi Variable 5.8 mph - 0.04 in Rain Light Rain
11:52 PM 39.0 °F 34.0 °F 36.0 °F 89% 30.04 in 4.0 mi Variable 6.9 mph - 0.06 in Rain Light Rain